| time (UTC) | temp F | wind direction | speed MPH | gust MPH | rain 1hr in | rain 24hr in | rain mn in | humidity % | barometer mb |
| 20260905183052 | 58 | 108 | 0.0 | 2.0 | 0.00 | 0.95 | 0.07 | 96 | 1017.7 |
| 20260905181553 | 57 | 0 | 0.0 | 4.0 | 0.00 | 0.95 | 0.07 | 96 | 1017.5 |
| 20260905180053 | 57 | 0 | 0.0 | 3.0 | 0.00 | 0.95 | 0.07 | 97 | 1017.6 |
| 20260905174550 | 56 | 0 | 0.0 | 2.0 | 0.00 | 0.95 | 0.07 | 96 | 1017.6 |
| 20260905173046 | 56 | 104 | 0.0 | 4.0 | 0.00 | 0.95 | 0.07 | 96 | 1017.5 |
| 20260905171544 | 56 | 32 | 0.0 | 5.0 | 0.00 | 0.95 | 0.07 | 96 | 1017.4 |
| 20260905170049 | 56 | 0 | 0.0 | 5.0 | 0.00 | 0.95 | 0.07 | 96 | 1017.3 |
| 20260905164552 | 56 | 72 | 1.0 | 5.0 | 0.00 | 0.95 | 0.07 | 96 | 1017.4 |
| 20260905163049 | 57 | 83 | 1.0 | 3.0 | 0.00 | 0.95 | 0.07 | 97 | 1017.3 |
| 20260905161550 | 57 | 100 | 0.0 | 2.0 | 0.00 | 0.95 | 0.07 | 97 | 1017.4 |
| 20260905160048 | 56 | 0 | 0.0 | 1.0 | 0.00 | 0.95 | 0.07 | 97 | 1017.4 |
| 20260905154549 | 56 | 99 | 0.0 | 1.0 | 0.00 | 0.95 | 0.07 | 97 | 1017.4 |
| 20260905153057 | 56 | 0 | 0.0 | 1.0 | 0.00 | 0.95 | 0.07 | 97 | 1017.5 |
| 20260905151553 | 55 | 0 | 0.0 | 2.0 | 0.00 | 0.95 | 0.07 | 97 | 1017.4 |
| 20260905150048 | 55 | 0 | 0.0 | 2.0 | 0.00 | 0.95 | 0.07 | 97 | 1017.4 |
| 20260905144550 | 55 | 0 | 0.0 | 2.0 | 0.00 | 0.95 | 0.07 | 97 | 1017.3 |
| 20260905143045 | 55 | 95 | 0.0 | 2.0 | 0.00 | 0.95 | 0.07 | 97 | 1017.4 |
| 20260905141555 | 55 | 0 | 0.0 | 2.0 | 0.00 | 0.95 | 0.07 | 97 | 1017.2 |
| 20260905140047 | 55 | 0 | 0.0 | 3.0 | 0.00 | 0.95 | 0.07 | 97 | 1017.2 |
| 20260905134544 | 55 | 116 | 0.0 | 2.0 | 0.00 | 0.96 | 0.07 | 97 | 1017.2 |
| 20260905133049 | 55 | 0 | 0.0 | 1.0 | 0.00 | 0.96 | 0.07 | 97 | 1017.0 |
| 20260905131603 | 55 | 0 | 0.0 | 1.0 | 0.00 | 0.96 | 0.07 | 97 | 1017.0 |
| 20260905130052 | 55 | 0 | 0.0 | 1.0 | 0.00 | 0.96 | 0.07 | 97 | 1017.0 |
| 20260905124551 | 55 | 0 | 0.0 | 1.0 | 0.00 | 0.96 | 0.07 | 97 | 1017.0 |
| 20260905123049 | 54 | 23 | 0.0 | 2.0 | 0.00 | 0.96 | 0.07 | 97 | 1017.0 |
| 20260905121550 | 55 | 46 | 0.0 | 1.0 | 0.00 | 0.96 | 0.07 | 97 | 1016.8 |
| 20260905120050 | 55 | 0 | 0.0 | 1.0 | 0.00 | 0.96 | 0.07 | 97 | 1016.7 |
| 20260905114548 | 55 | 0 | 0.0 | 1.0 | 0.00 | 0.96 | 0.07 | 97 | 1016.8 |
| 20260905113047 | 55 | 0 | 0.0 | 1.0 | 0.00 | 0.96 | 0.07 | 97 | 1016.7 |
| 20260905111602 | 55 | 0 | 0.0 | 1.0 | 0.00 | 0.96 | 0.07 | 97 | 1016.7 |
| 20260905110055 | 55 | 0 | 0.0 | 1.0 | 0.00 | 0.96 | 0.07 | 97 | 1016.7 |
| 20260905104548 | 55 | 0 | 0.0 | 2.0 | 0.00 | 0.96 | 0.07 | 97 | 1016.7 |
| 20260905103050 | 55 | 0 | 0.0 | 1.0 | 0.00 | 0.96 | 0.07 | 97 | 1016.7 |
| 20260905101549 | 55 | 0 | 0.0 | 1.0 | 0.00 | 0.96 | 0.07 | 97 | 1016.7 |
| 20260905100049 | 55 | 0 | 0.0 | 1.0 | 0.00 | 0.96 | 0.07 | 97 | 1016.6 |
| 20260905094549 | 55 | 0 | 0.0 | 0.0 | 0.00 | 1.00 | 0.07 | 97 | 1016.7 |
| 20260905093052 | 55 | 0 | 0.0 | 0.0 | 0.00 | 1.00 | 0.07 | 97 | 1016.7 |
| 20260905091550 | 55 | 0 | 0.0 | 1.0 | 0.03 | 1.00 | 0.07 | 97 | 1016.6 |
| 20260905090159 | 55 | 0 | 0.0 | 1.0 | 0.05 | 1.00 | 0.07 | 97 | 1016.3 |
| 20260905084547 | 55 | 0 | 0.0 | 1.0 | 0.06 | 1.09 | 0.07 | 97 | 1016.4 |
| 20260905083051 | 55 | 0 | 0.0 | 2.0 | 0.06 | 1.08 | 0.06 | 97 | 1016.3 |
| 20260905081551 | 55 | 102 | 0.0 | 1.0 | 0.03 | 1.05 | 0.03 | 97 | 1016.3 |
| 20260905080048 | 55 | 0 | 0.0 | 0.0 | 0.01 | 1.03 | 0.01 | 97 | 1016.1 |
| 20260905074555 | 55 | 0 | 0.0 | 1.0 | 0.00 | 1.02 | 0.00 | 97 | 1016.1 |
| 20260905073102 | 55 | 0 | 0.0 | 0.0 | 0.00 | 1.02 | 0.00 | 97 | 1016.1 |
| 20260905071549 | 55 | 0 | 0.0 | 0.0 | 0.00 | 1.02 | 0.00 | 97 | 1016.0 |
| 20260905070049 | 55 | 0 | 0.0 | 0.0 | 0.00 | 1.02 | 0.00 | 97 | 1016.0 |
| 20260905064546 | 55 | 0 | 0.0 | 0.0 | 0.00 | 1.02 | 1.02 | 97 | 1015.9 |
| 20260905063051 | 55 | 0 | 0.0 | 0.0 | 0.00 | 1.02 | 1.02 | 97 | 1015.9 |
| 20260905061549 | 55 | 0 | 0.0 | 0.0 | 0.00 | 1.02 | 1.02 | 97 | 1015.9 |
| 20260905060048 | 55 | 0 | 0.0 | 0.0 | 0.00 | 1.02 | 1.02 | 97 | 1015.9 |
| 20260905054554 | 55 | 0 | 0.0 | 0.0 | 0.00 | 1.03 | 1.02 | 96 | 1015.8 |
| 20260905053127 | 55 | 0 | 0.0 | 0.0 | 0.00 | 1.03 | 1.02 | 96 | 1015.9 |
| 20260905051550 | 55 | 0 | 0.0 | 0.0 | 0.00 | 1.03 | 1.02 | 96 | 1015.8 |
| 20260905050049 | 55 | 0 | 0.0 | 0.0 | 0.00 | 1.03 | 1.02 | 96 | 1015.7 |
| 20260905044553 | 55 | 0 | 0.0 | 1.0 | 0.00 | 1.13 | 1.02 | 96 | 1015.8 |
| 20260905043051 | 55 | 0 | 0.0 | 0.0 | 0.00 | 1.13 | 1.02 | 96 | 1015.7 |
| 20260905041549 | 56 | 0 | 0.0 | 0.0 | 0.00 | 1.13 | 1.02 | 96 | 1015.6 |
| 20260905040050 | 56 | 0 | 0.0 | 1.0 | 0.00 | 1.13 | 1.02 | 96 | 1015.5 |
| 20260905034553 | 56 | 0 | 0.0 | 1.0 | 0.00 | 1.14 | 1.02 | 96 | 1015.2 |
| 20260905033059 | 56 | 0 | 0.0 | 0.0 | 0.00 | 1.14 | 1.02 | 96 | 1015.1 |
| 20260905031551 | 56 | 0 | 0.0 | 0.0 | 0.00 | 1.14 | 1.02 | 96 | 1015.1 |
| 20260905030100 | 56 | 0 | 0.0 | 0.0 | 0.00 | 1.14 | 1.02 | 96 | 1014.9 |
| 20260905024600 | 57 | 0 | 0.0 | 0.0 | 0.00 | 1.16 | 1.02 | 96 | 1014.9 |
| 20260905023052 | 56 | 0 | 0.0 | 0.0 | 0.00 | 1.16 | 1.02 | 95 | 1014.8 |
| 20260905021605 | 57 | 0 | 0.0 | 0.0 | 0.09 | 1.16 | 1.02 | 95 | 1014.7 |
| 20260905020105 | 56 | 0 | 0.0 | 0.0 | 0.18 | 1.16 | 1.02 | 95 | 1014.7 |
| 20260905014552 | 56 | 0 | 0.0 | 0.0 | 0.53 | 1.18 | 1.02 | 95 | 1014.7 |
| 20260905013051 | 56 | 0 | 0.0 | 1.0 | 0.60 | 1.18 | 1.01 | 95 | 1014.6 |
| 20260905011550 | 56 | 0 | 0.0 | 1.0 | 0.55 | 1.09 | 0.92 | 94 | 1014.6 |
| 20260905010052 | 57 | 0 | 0.0 | 2.0 | 0.45 | 1.00 | 0.83 | 92 | 1014.3 |
| 20260905004551 | 58 | 0 | 0.0 | 2.0 | 0.11 | 0.66 | 0.48 | 90 | 1014.4 |
| 20260905003047 | 59 | 38 | 1.0 | 5.0 | 0.03 | 0.59 | 0.40 | 87 | 1014.0 |
| 20260905001547 | 60 | 0 | 0.0 | 1.0 | 0.00 | 0.56 | 0.37 | 88 | 1013.9 |
| 20260905000050 | 60 | 0 | 0.0 | 0.0 | 0.00 | 0.56 | 0.37 | 88 | 1013.7 |
| 20260904234555 | 60 | 0 | 0.0 | 1.0 | 0.00 | 0.59 | 0.37 | 87 | 1013.5 |
| 20260904233051 | 60 | 0 | 0.0 | 2.0 | 0.00 | 0.59 | 0.37 | 88 | 1013.6 |
| 20260904231547 | 60 | 0 | 0.0 | 2.0 | 0.00 | 0.59 | 0.37 | 88 | 1013.5 |
| 20260904230053 | 60 | 180 | 0.0 | 2.0 | 0.00 | 0.59 | 0.37 | 89 | 1013.6 |
| 20260904224602 | 60 | 27 | 0.0 | 5.0 | 0.00 | 0.59 | 0.37 | 90 | 1013.4 |
| 20260904223049 | 60 | 0 | 0.0 | 2.0 | 0.00 | 0.59 | 0.37 | 91 | 1013.5 |
| 20260904221559 | 59 | 0 | 0.0 | 4.0 | 0.00 | 0.59 | 0.37 | 90 | 1013.3 |
| 20260904220056 | 60 | 0 | 1.0 | 6.0 | 0.00 | 0.59 | 0.37 | 89 | 1013.3 |
| 20260904214551 | 60 | 160 | 0.0 | 2.0 | 0.00 | 0.59 | 0.37 | 93 | 1013.3 |
| 20260904213048 | 60 | 114 | 0.0 | 6.0 | 0.00 | 0.59 | 0.37 | 93 | 1013.3 |
| 20260904211554 | 59 | 95 | 1.0 | 5.0 | 0.01 | 0.59 | 0.37 | 94 | 1013.3 |
| 20260904210053 | 59 | 117 | 1.0 | 5.0 | 0.04 | 0.59 | 0.37 | 95 | 1013.4 |
| 20260904204548 | 57 | 110 | 1.0 | 5.0 | 0.20 | 0.59 | 0.37 | 94 | 1013.3 |
| 20260904203051 | 57 | 101 | 0.0 | 2.0 | 0.22 | 0.59 | 0.37 | 94 | 1013.2 |
| 20260904201604 | 57 | 0 | 0.0 | 2.0 | 0.21 | 0.58 | 0.35 | 93 | 1013.2 |
| 20260904200100 | 57 | 0 | 0.0 | 8.0 | 0.18 | 0.55 | 0.32 | 89 | 1013.2 |
| 20260904194604 | 60 | 200 | 0.0 | 5.0 | 0.01 | 0.38 | 0.15 | 84 | 1013.3 |
| 20260904193051 | 60 | 0 | 0.0 | 3.0 | 0.00 | 0.37 | 0.14 | 82 | 1013.2 |
| 20260904191553 | 61 | 0 | 0.0 | 3.0 | 0.00 | 0.37 | 0.14 | 85 | 1013.2 |
| 20260904190045 | 59 | 164 | 0.0 | 1.0 | 0.00 | 0.37 | 0.14 | 89 | 1013.4 |
| 20260904184556 | 58 | 50 | 0.0 | 2.0 | 0.00 | 0.42 | 0.14 | 92 | 1013.3 |